Location: 22
(39.7117°N, 89.5929°W)
Time: 10:22:18
(UTC-05:00)

Courier 1B - Pass Details

Date: 01 February 2023
Orbit: 962 x 1209 km, 28.3° (Epoch: 26 March)

Event Time Altitude Azimuth Distance (km) Brightness Sun altitude
Rises 18:19:03 0° 255° (WSW) 3,638 12.7 -12.1°
Reaches altitude 10° 18:23:28 10° 228° (SW) 2,709 10.8 -12.9°
Maximum altitude 18:26:02 12° 204° (SSW) 2,546 10.2 -13.4°
Drops below altitude 10° 18:28:38 10° 181° (S) 2,749 10.0 -13.9°
Sets 18:33:13 0° 153° (SSE) 3,748 10.4 -14.7°
